Total_Precipitation_Accumulation
1.86 2.17 2.55 2.90 3.11 3.27 3.37 3.68 3.90 3.62 3.14 2.72 2.23 2.02 1.96 1.77 1.57 1.44 1.32 1.38 1.32 1.45 1.58 1.36 1.62 1.44 1.41 1.48 1.52 1.64 1.64 1.49 1.46 1.80 1.98 1.58 1.22 1.23 1.12 1.11 1.30 1.38 1.44
1.40 1.50 1.73 2.06 2.15 2.36 2.67 3.05 3.30 3.15 2.61 2.38 2.17 2.03 1.96 1.82 1.76 1.62 1.54 1.37 1.33 1.40 1.34 1.58 1.44 1.45 1.55 1.59 1.67 1.77 1.77 1.58 1.51 1.81 2.17 1.92 1.83 1.62 0.94 1.06 1.21 1.29 1.53
1.06 1.05 1.15 1.33 1.63 2.12 2.28 2.31 2.56 2.77 2.51 2.38 2.30 2.18 2.08 1.89 1.94 1.84 1.67 1.35 1.23 1.27 1.33 1.35 1.38 1.56 1.40 1.65 1.85 1.79 1.84 1.82 1.65 1.65 1.96 2.04 1.99 1.70 1.29 1.05 1.04 1.21 1.54
0.74 0.89 0.91 0.97 1.17 1.51 1.81 2.05 2.28 2.47 2.40 2.28 2.07 1.90 1.71 1.61 1.61 1.64 1.65 1.51 1.39 1.23 1.23 1.24 1.40 1.57 1.40 1.74 1.44 1.49 1.73 1.87 1.70 1.63 1.50 1.54 1.70 1.82 1.73 1.45 1.16 1.17 1.33
0.44 0.61 0.72 0.81 0.85 1.06 1.46 1.90 2.22 2.46 2.35 2.06 1.89 1.87 1.77 1.72 1.64 1.57 1.75 1.63 1.55 1.35 1.18 1.26 1.39 1.46 1.39 1.50 1.53 1.76 1.68 1.65 1.63 1.65 1.68 1.75 1.63 1.43 1.53 1.60 1.54 1.42 1.15
0.32 0.42 0.47 0.57 0.72 0.86 1.13 1.49 1.79 2.03 2.05 1.91 1.83 1.86 1.87 1.83 1.69 1.50 1.49 1.41 1.43 1.39 1.30 1.36 1.42 1.38 1.34 1.41 1.44 1.57 1.59 1.68 1.77 1.62 1.52 1.64 1.55 1.44 1.49 1.34 1.32 1.39 1.07
0.29 0.41 0.45 0.47 0.56 0.65 0.85 1.13 1.33 1.50 1.70 1.80 1.80 1.77 1.86 1.84 1.65 1.47 1.42 1.45 1.32 1.25 1.26 1.36 1.52 1.46 1.48 1.46 1.57 1.57 1.52 1.60 1.65 1.51 1.40 1.36 1.23 1.34 1.46 1.49 1.31 1.24 0.96
0.24 0.38 0.48 0.47 0.47 0.51 0.68 0.85 1.02 1.23 1.47 1.63 1.69 1.67 1.60 1.48 1.46 1.55 1.45 1.41 1.40 1.34 1.26 1.35 1.37 1.41 1.46 1.46 1.76 1.59 1.47 1.50 1.47 1.34 1.52 1.44 1.15 1.18 1.31 1.48 1.62 1.48 1.21
0.34 0.40 0.51 0.52 0.42 0.44 0.54 0.62 0.81 1.00 1.13 1.35 1.47 1.41 1.44 1.34 1.33 1.39 1.36 1.32 1.43 1.44 1.37 1.29 1.29 1.36 1.47 1.59 1.70 1.60 1.59 1.62 1.45 1.38 1.49 1.39 1.18 1.15 1.12 1.35 1.63 1.78 1.61
0.47 0.50 0.48 0.51 0.44 0.43 0.51 0.60 0.76 0.87 0.93 1.10 1.18 1.11 1.31 1.32 1.42 1.39 1.31 1.25 1.26 1.30 1.36 1.36 1.31 1.39 1.46 1.59 1.70 1.71 1.80 1.84 1.67 1.56 1.55 1.43 1.29 1.34 1.20 1.26 1.51 1.71 1.85
0.53 0.52 0.48 0.50 0.47 0.47 0.53 0.59 0.75 0.84 0.88 1.01 1.06 1.11 1.19 1.23 1.28 1.33 1.34 1.33 1.30 1.32 1.34 1.39 1.42 1.42 1.45 1.59 1.66 1.57 1.77 1.89 1.92 1.74 1.64 1.57 1.57 1.56 1.44 1.46 1.55 1.61 1.82
0.39 0.47 0.50 0.56 0.45 0.45 0.50 0.56 0.66 0.73 0.77 0.93 1.06 1.10 1.22 1.24 1.21 1.25 1.45 1.48 1.45 1.43 1.43 1.46 1.55 1.53 1.54 1.63 1.58 1.46 1.53 1.72 1.91 2.10 2.15 1.94 1.85 1.79 1.64 1.63 1.62 1.64 1.78
0.40 0.50 0.58 0.56 0.48 0.47 0.51 0.57 0.65 0.69 0.73 0.82 0.95 1.09 1.18 1.26 1.35 1.48 1.66 1.76 1.69 1.64 1.67 1.70 1.65 1.65 1.66 1.62 1.54 1.53 1.58 1.69 1.77 1.95 2.13 2.14 2.22 1.99 1.92 1.84 1.76 1.73 1.70
0.39 0.45 0.62 0.64 0.55 0.50 0.54 0.58 0.68 0.75 0.85 1.03 1.15 1.23 1.39 1.55 1.64 1.66 1.76 1.79 1.80 1.84 1.84 1.85 1.79 1.75 1.78 1.75 1.70 1.67 1.66 1.72 1.73 1.75 1.80 1.92 2.17 2.15 2.13 2.00 1.98 2.00 1.98
0.43 0.55 0.68 0.77 0.75 0.69 0.64 0.67 0.81 0.94 1.14 1.35 1.40 1.42 1.52 1.64 1.79 1.96 2.01 2.02 2.03 1.97 2.07 2.03 1.94 1.91 1.91 1.77 1.83 1.97 1.97 2.02 1.87 1.77 1.71 1.70 1.92 2.02 2.03 1.84 1.90 2.05 2.10
0.49 0.56 0.75 0.94 0.99 0.98 0.95 0.98 1.09 1.28 1.55 1.83 1.92 2.00 2.07 2.14 2.21 2.26 2.26 2.32 2.32 2.26 2.16 2.07 2.07 2.06 1.87 1.98 2.02 1.94 2.00 2.15 2.15 2.03 1.96 1.83 1.76 1.76 1.81 1.85 1.89 1.94 1.94
0.65 0.69 0.85 0.99 1.11 1.13 1.15 1.25 1.33 1.52 1.75 1.92 2.01 2.12 2.20 2.28 2.33 2.35 2.37 2.32 2.31 2.26 2.16 2.16 2.20 2.13 2.16 2.12 1.90 1.77 1.77 1.83 1.92 2.00 1.99 1.77 1.64 1.76 1.69 1.84 1.86 1.75 1.68
0.79 0.82 0.92 1.02 1.08 1.18 1.30 1.39 1.43 1.49 1.73 1.90 2.00 2.03 2.07 2.12 2.25 2.39 2.36 2.25 2.22 2.20 2.18 2.16 2.06 1.99 1.95 1.96 1.75 1.69 1.62 1.59 1.57 1.67 1.77 1.74 1.65 1.64 1.69 1.63 1.46 1.35 1.36
0.77 0.83 0.95 1.01 1.09 1.15 1.20 1.17 1.22 1.34 1.48 1.56 1.67 1.72 1.84 2.01 2.14 2.23 2.27 2.28 2.22 2.07 1.97 1.89 1.84 1.81 1.85 1.97 1.76 1.66 1.58 1.62 1.50 1.48 1.47 1.47 1.39 1.47 1.49 1.39 1.24 1.14 1.13
0.74 0.80 0.93 0.99 1.06 1.10 1.12 1.15 1.23 1.40 1.58 1.71 1.78 1.86 1.95 2.08 2.10 2.20 2.29 2.29 2.23 2.18 2.14 2.00 1.93 1.90 1.86 1.97 1.72 1.58 1.50 1.52 1.47 1.47 1.49 1.58 1.41 1.31 1.19 1.11 1.12 1.00 0.96
0.76 0.79 0.90 1.03 1.08 1.13 1.27 1.36 1.45 1.57 1.70 1.76 1.79 1.81 1.88 1.98 2.07 2.21 2.19 2.23 2.21 2.14 2.01 1.87 1.78 1.75 1.73 1.71 1.52 1.39 1.28 1.26 1.25 1.20 1.20 1.31 1.34 1.14 0.98 0.96 0.95 0.90 0.91
0.67 0.81 0.91 1.02 1.13 1.25 1.41 1.52 1.54 1.59 1.68 1.82 1.88 1.86 1.91 1.95 1.98 2.03 2.00 2.00 1.99 1.91 1.84 1.80 1.76 1.74 1.68 1.52 1.34 1.21 1.13 1.13 1.10 1.18 1.21 1.32 1.38 1.15 1.00 0.86 0.79 0.79 0.74
0.72 0.80 0.90 1.03 1.13 1.26 1.41 1.54 1.61 1.71 1.78 1.86 1.95 2.01 2.03 2.02 2.07 2.15 2.17 2.06 1.96 1.88 1.80 1.72 1.57 1.52 1.54 1.52 1.37 1.17 1.08 1.09 1.05 1.23 1.47 1.49 1.44 1.26 1.03 0.95 0.93 0.83 0.71
0.91 0.91 0.96 1.00 1.10 1.23 1.38 1.51 1.57 1.65 1.80 1.87 1.89 1.98 2.07 2.13 2.15 2.16 2.11 2.00 1.88 1.78 1.70 1.60 1.53 1.52 1.52 1.46 1.39 1.28 1.17 1.17 1.16 1.27 1.46 1.56 1.57 1.46 1.30 1.21 1.11 0.91 0.84
0.97 0.98 1.02 1.05 1.10 1.20 1.30 1.50 1.60 1.64 1.72 1.85 1.90 1.89 1.89 1.95 2.00 2.01 1.95 1.83 1.73 1.65 1.57 1.47 1.44 1.43 1.41 1.44 1.42 1.28 1.19 1.14 1.19 1.33 1.54 1.68 1.76 1.75 1.67 1.54 1.42 1.26 1.12
1.02 1.01 1.04 1.07 1.11 1.20 1.32 1.40 1.58 1.77 1.85 1.84 1.77 1.69 1.60 1.58 1.60 1.58 1.60 1.64 1.52 1.51 1.40 1.31 1.25 1.23 1.25 1.27 1.20 1.10 1.06 1.09 1.17 1.25 1.41 1.65 1.83 1.89 1.95 1.92 1.79 1.57 1.38